CZ-6A DEB, 54973

Orbit data source: Space-Track

CZ-6A DEB, 54973 is space debris in SSO originally from a launch on Fri, 11 Nov 2022 UTC launched from the Taiyaun Space Center, China (TSC). Debris objects in space refer to the collection of defunct objects orbiting the Earth. Examples of debris include non-operational satellites, rocket bodies, and fragments generated from explosions, collisions, or faulty payload assembly.

Loading next visibility...
Identifier
54973, 2022-151TN
Orbit
SSO
Country
Flag of CNCN / PRC
Related business
Manufacturer
SAST
Mission
Spacecraft
Bus & Motor
Unknown
Mass
Unknown
Launch date (UTC)
2022-11-11 (4 years ago)
Launch vehicle
Unknown
Launch site
Taiyaun Space Center, China (TSC)
Object type
Payload
Rocket body
Debris
Shape & HBR
Unknown shape, 0.1 m
Radar Cross Section
Medium (>0.1 m² and <1 m²)

Expand to show TLE details & history
Last TLE update: 2 days ago

TLE from 2 days ago
0 CZ-6A DEB
1 54973U 22151TN  26171.11415586  .00017359  00000-0  31519-2 0  9993
2 54973  98.7583 225.8031 0006426  61.0209 299.1637 14.66248495188550
Epoch: 2026-06-20T02:44Z
TLE epoch observation values (Epoch: 2026-06-20T02:44:23.066Z)
Latitude
0.00006°
Longitude
-83.62645°
Altitude
673.839 km
Speed
7.521 km/s
True Right ascension
15h 03m 12s
True Declination
0° 00' 00"
Sunlit
Object was in full shadow at epoch
Visualization orbit readout
Latitude
Unknown
Longitude
Unknown
Altitude
Unknown
Speed
Unknown
Apparent Right ascension
Unknown
Apparent Declination
Unknown
Sunlit
N/A
Visualization observer readout
Local Sidereal Time
21:24:50
Azimuth
Unknown
Elevation
Unknown
Doppler factor
Unknown
Orbital elements
Apogee altitude
674.699 km
Perigee altitude
665.64 km
Semi-major axis
7,048.306 km
Eccentricity
0.00064
Inclination
98.7583°
RAAN
225.8031°
Arg. of periapsis
61.0209°
True anomaly
299.09937°
Mean anomaly
299.1637°
Eccentric anomaly
299.13154°
Mean motion
3.66789 °/min
Orbital period
98.15 mins
BSTAR
0.0031519
Loading maneuver chart data...
Computing Atmospheric mass density...
Loading historical data...
Loading historical data...
Loading historical data...
Loading historical data...
Loading historical data...
Loading historical data...
Loading historical data...

Documentation

Showing up to 5 results
|